Location: ?ernice
(48.8383°N, 14.3803°E)
Time: 07:05:57
(UTC+00:00)

Geosat - Pass Details

Date: 23 May 2024
Orbit: 760 x 763 km, 108.1° (Epoch: 15 June)

Event Time Altitude Azimuth Distance (km) Brightness Sun altitude
Rises 02:23:44 0° 158° (SSE) 3,211 7.0 -7.0°
Reaches altitude 10° 02:26:01 10° 161° (SSE) 2,290 6.2 -6.7°
Maximum altitude 02:30:59 65° 243° (WSW) 839 4.0 -6.1°
Drops below altitude 10° 02:35:58 10° 326° (NW) 2,308 6.6 -5.4°
Sets 02:38:17 0° 329° (NNW) 3,238 7.4 -5.2°
